Regional Weather Roundup
Issued by NWS

Home | Current Version | Previous Version | Text Only | Print | Product List | Glossary Off
Versions: 1 2 3 4 5 6 7 8 9 10 11 12 13 14 15 16 17 18 19 20 21 22 23 24 25 26 27 28 29 30 31 32 33 34 35 36 37 38 39 40 41 42 43 44 45 46 47 48 49 50

000
ASUS43 KOAX 011202
RWRNE

WEATHER ROUNDUP FOR NEBRASKA
NATIONAL WEATHER SERVICE OMAHA NE
600 AM CST SUN MAR 01 2015

NOTES: SATELLITE DATA IS BEING USED TO AUGMENT CLOUD COVER ABOVE
       12000 FEET.
       "FAIR" INDICATES FEW OR NO CLOUDS BELOW 12,000 FEET WITH NO
       SIGNIFICANT WEATHER AND/OR OBSTRUCTIONS TO VISIBILITY.

  * THESE STATIONS DO NOT REPORT WEATHER SUCH AS RAIN...SNOW OR FOG.

NEZ001>004-019>022-054>056-011300-
NEBRASKA PANHANDLE

CITY           SKY/WX    TMP DP  RH WIND       PRES   REMARKS
SCOTTSBLUFF    CLOUDY    17  10  74 N9        30.18R WCI   6
6HR MIN TEMP:  17; 6HR MAX TEMP:  24;

ALLIANCE       CLOUDY    17  10  74 N9        30.18R WCI   6
6HR MIN TEMP:  16; 6HR MAX TEMP:  19; 6HR PCP: TRACE;

CHADRON        CLOUDY    18  12  77 SW6       30.24R WCI  10
6HR MIN TEMP:  18; 6HR MAX TEMP:  20;

KIMBALL        CLEAR     15  13  91 CALM      30.10R
SIDNEY         PTCLDY    14  11  87 N3        30.15R
6HR MIN TEMP:  13; 6HR MAX TEMP:  20;

$$

NEZ057>060-069>072-079>082-011300-
SOUTHWEST NEBRASKA

CITY           SKY/WX    TMP DP  RH WIND       PRES   REMARKS
NORTH PLATTE   CLOUDY    20  14  77 NW5       30.23R WCI  13
6HR MIN TEMP:  15; 6HR MAX TEMP:  20;

IMPERIAL         N/A     13   9  84 N6        30.20R WCI   4
6HR MIN TEMP:  13; 6HR MAX TEMP:  19;

LEXINGTON      MOCLDY    14  11  90 NW3       30.25R
MCCOOK         PTCLDY    15  10  80 N5        30.25R HAZE    WCI   8
6HR MIN TEMP:  15; 6HR MAX TEMP:  22;

$$

NEZ005>010-023>029-035>040-094-011300-
NORTH CENTRAL NEBRASKA

CITY           SKY/WX    TMP DP  RH WIND       PRES   REMARKS
VALENTINE      LGT SNOW  18  11  74 NW6       30.27R WCI  10
6HR MIN TEMP:  16; 6HR MAX TEMP:  19; 6HR PCP: TRACE;

AINSWORTH      CLOUDY    17   8  70 W3        30.27R
BROKEN BOW     CLOUDY    20  13  74 NW8       30.25R WCI  10
6HR MIN TEMP:  15; 6HR MAX TEMP:  20;

ORD            CLOUDY    15  10  80 NW5       30.27R WCI   8
6HR MIN TEMP:  11; 6HR MAX TEMP:  16;

$$

NEZ041-046>049-061>064-073>077-083>087-011300-
SOUTH CENTRAL NEBRASKA

CITY           SKY/WX    TMP DP  RH WIND       PRES   REMARKS
GRAND ISLAND   CLOUDY    18  14  84 W7        30.28S WCI   9
6HR MIN TEMP:  15; 6HR MAX TEMP:  18;

HASTINGS       CLOUDY    18  15  88 SW5       30.27R WCI  11
6HR MIN TEMP:  13; 6HR MAX TEMP:  18;

HEBRON         CLOUDY    18  15  88 CALM      30.32R
KEARNEY *      CLOUDY    18  12  79 W3        30.27R
$$

NEZ011>018-030>034-042>045-011300-
NORTHEAST NEBRASKA

CITY           SKY/WX    TMP DP  RH WIND       PRES   REMARKS
NORFOLK        PTCLDY    15  11  83 NW7       30.28S WCI   5
6HR MIN TEMP:  14; 6HR MAX TEMP:  17;

BLAIR          PTCLDY    18  13  80 SW6       30.31R WCI  10
COLUMBUS *     PTCLDY    16   5  62 SW5       30.31S WCI   9
FREMONT        PTCLDY    18  13  82 SW7       30.33R WCI   8
TEKAMAH        PTCLDY    17  12  80 S8        30.34R WCI   7
6HR MIN TEMP:  12; 6HR MAX TEMP:  18;

$$

NEZ050>053-065>068-078-088>093-011300-
SOUTHEAST NEBRASKA

CITY           SKY/WX    TMP DP  RH WIND       PRES   REMARKS
LINCOLN        CLOUDY    19  14  81 CALM      30.33F
6HR MIN TEMP:  18; 6HR MAX TEMP:  21;

OMAHA EPPLEY   PTCLDY    20  13  74 SW3       30.35S
6HR MIN TEMP:  19; 6HR MAX TEMP:  23; 6HR PCP: TRACE;

FALLS CITY     CLOUDY    21  17  84 CALM      30.35S FOG
6HR MIN TEMP:  18; 6HR MAX TEMP:  21; 6HR PCP: TRACE;

$$

NEZ044-045-051>053-067-011300-
OMAHA AREA

CITY           SKY/WX    TMP DP  RH WIND       PRES   REMARKS
OMAHA EPPLEY   PTCLDY    20  13  74 SW3       30.35S
6HR MIN TEMP:  19; 6HR MAX TEMP:  23; 6HR PCP: TRACE;

BLAIR          PTCLDY    18  13  80 SW6       30.31R WCI  10
FREMONT        PTCLDY    18  13  82 SW7       30.33R WCI   8
OFFUTT AFB     MOCLDY    15  11  85 W1        30.33F
$$



USA.gov is the U.S. government's official web portal to all federal, state and local government web resources and services.